User: anonymous   Login
Location: Peebles
(55.6412°N, 3.1714°W)
Time: 03:06:32
(UTC+00:00)
Language:

BREEZE-M R/B - Orbit

View from above orbital plane
View from above orbital plane
View from above satellite
View from above satellite

Ground track
Ground track

The orbit data is extracted from the following two-line orbital elements,

1 32709U 08011B   21332.83854247 -.00000383  00000-0 -41483-2 0  9991
2 32709  48.8660 187.5081 6507318 105.9898   0.7021  3.07830308153949
Epoch (UTC): 28 November 2021 20:07:30
Eccentricity: 0.6507318
inclination: 48.8660°
perigee height: 594 km
apogee height: 26573 km
right ascension of ascending node: 187.5081°
argument of perigee: 105.9898°
revolutions per day: 3.07830308
mean anomaly at epoch: 0.7021°
orbit number at epoch: 15394

The dashed part of the orbit path shows where the satellite is in the earth's shadow,  

DLR